Location: Peebles
(55.6412°N, 3.1714°W)
Time: 13:37:35
(UTC+01:00)

Vanguard 3 - All Passes

Search period start: 29 September 2023 00:00
Search period end: 09 October 2023 00:00
Orbit: 508 x 3242 km, 33.3° (Epoch: 28 September)

Date Brightness Start Highest point End Pass type
(mag) Time Alt. Az. Time Alt. Az. Time Alt. Az.
29 Sep - 19:54:53 10° SSW 19:59:53 14° S 20:03:55 10° SSE visible
29 Sep - 22:08:36 10° SSW 22:10:11 11° SSW 22:11:36 10° S visible
30 Sep - 18:37:31 10° SSW 18:43:18 14° SSE 18:47:58 10° SE daylight
30 Sep - 20:49:00 10° SW 20:54:08 15° S 20:58:10 10° SSE visible
01 Oct - 17:21:33 10° S 17:26:26 12° SSE 17:30:40 10° SE daylight
01 Oct - 19:30:34 10° SSW 19:37:44 17° S 19:43:07 10° SE visible
01 Oct - 21:44:26 10° SW 21:48:09 13° SSW 21:51:14 10° S visible
02 Oct - 18:12:47 10° SSW 18:20:57 18° S 18:27:13 10° SE daylight
02 Oct - 20:25:04 10° SW 20:32:00 18° S 20:37:09 10° SSE visible
03 Oct - 16:56:03 10° S 17:03:54 16° SSE 17:10:18 10° SE daylight
03 Oct - 19:06:23 10° SW 19:15:25 20° S 19:21:59 10° SE visible
03 Oct - 21:20:38 10° SW 21:26:01 15° SSW 21:30:14 10° S visible
04 Oct - 15:41:39 10° SSE 15:46:42 12° SSE 15:51:16 10° SE daylight
04 Oct - 17:48:17 10° SSW 17:58:27 21° S 18:06:04 10° SE daylight
04 Oct - 20:01:09 10° SW 20:09:44 20° SSW 20:15:55 10° SSE visible
04 Oct - 22:19:06 10° SW 22:19:43 10° SW 22:20:18 10° SSW visible
05 Oct - 16:31:08 10° SSW 16:41:12 19° SSE 16:49:13 10° ESE daylight
05 Oct - 18:42:14 10° SW 18:52:59 23° S 19:00:38 10° SE daylight
05 Oct - 20:56:52 10° WSW 21:03:46 17° SSW 21:08:58 10° SSE visible
06 Oct - 15:15:46 10° S 15:23:51 15° SSE 15:30:53 10° ESE daylight
06 Oct - 17:23:54 10° SSW 17:35:48 24° S 17:44:38 10° SE daylight
06 Oct - 19:37:13 10° SW 19:47:19 23° SSW 19:54:29 10° SSE visible
06 Oct - 21:54:17 10° SW 21:57:26 12° SW 22:00:11 10° SSW visible
07 Oct - 16:06:31 10° SSW 16:18:22 21° SSE 16:27:46 10° ESE daylight
07 Oct - 18:18:07 10° SW 18:30:22 26° S 18:39:06 10° SE daylight
07 Oct - 20:33:03 10° WSW 20:41:22 19° SSW 20:47:31 10° SSE visible
08 Oct - 14:50:42 10° S 15:00:49 17° SSE 15:09:37 10° ESE daylight
08 Oct - 16:59:39 10° SW 17:12:59 26° S 17:22:59 10° ESE daylight
08 Oct - 19:13:15 10° WSW 19:24:45 25° SSW 19:32:54 10° SE visible
08 Oct - 21:30:20 10° WSW 21:35:01 13° SW 21:38:57 10° SSW visible
